Wind_Speed
40 40 37 31 36 36 33 30 29 27 29 30 29 25 25 27 21 21 21 20 20 24 27 30 31 30 30 31 33 33 33 32 32 31 31 31 30 30 30 31 30 30 30 31
45 43 38 38 39 38 36 34 32 32 34 37 34 31 28 29 27 25 25 25 26 28 29 32 34 34 33 33 33 35 36 36 35 34 33 33 34 34 33 33 34 33 34 35
49 47 44 42 42 41 38 38 37 38 38 40 37 39 32 29 31 31 29 29 31 32 33 37 39 42 41 37 37 36 38 37 37 35 35 34 35 35 36 38 39 38 38 37
52 50 47 43 42 43 42 41 42 42 43 42 40 50 36 31 31 31 30 34 34 35 36 40 43 48 48 44 42 38 37 38 36 35 35 35 36 37 38 41 42 42 42 41
50 51 49 48 44 44 46 45 45 45 45 45 45 50 44 34 33 32 33 34 36 38 38 44 49 51 52 49 44 42 38 36 35 36 37 37 37 38 40 43 44 44 44 44
53 55 52 50 49 47 47 48 48 47 46 48 48 47 48 41 38 36 35 37 38 38 40 47 50 48 49 45 42 42 40 36 36 37 38 38 39 40 42 43 44 44 45 45
54 54 55 53 52 51 49 49 48 49 50 50 52 53 50 44 46 39 39 40 41 40 41 44 40 40 41 41 39 40 39 38 38 39 41 41 42 44 45 46 46 46 47 47
54 56 55 56 54 52 50 50 51 55 54 53 53 59 54 49 44 46 46 48 47 45 39 41 40 40 37 36 35 38 41 42 43 43 42 42 44 45 45 44 45 45 46 47
58 58 57 55 55 54 55 56 53 54 55 57 59 58 56 53 49 49 51 52 53 53 50 46 41 42 41 39 38 38 38 39 40 41 42 43 45 45 45 44 43 42 44 46
60 60 60 59 59 58 58 58 58 59 59 62 61 59 56 55 57 58 58 56 56 58 55 49 39 42 45 45 44 43 42 42 42 42 43 44 43 43 43 44 43 44 45 47
58 66 66 64 64 62 60 58 59 61 61 62 63 62 58 61 62 61 62 65 63 55 51 34 35 41 45 48 48 48 45 44 44 45 46 43 43 44 44 45 45 46 47 48
46 49 59 69 71 69 65 65 64 66 65 65 64 67 61 62 65 66 66 64 64 64 53 44 38 36 41 48 48 47 47 46 45 46 46 45 46 43 43 45 48 49 50 50
50 53 47 52 61 72 75 72 69 68 69 71 71 68 64 68 70 68 66 66 66 59 53 48 42 42 47 49 47 47 48 49 51 52 50 47 46 46 48 49 49 50 52 52
63 59 55 51 50 52 56 63 66 63 65 74 72 73 72 72 70 64 61 58 58 58 57 51 47 49 50 52 53 49 49 49 49 50 49 49 48 48 48 49 50 52 54 56
59 64 62 54 53 51 50 56 55 58 62 62 68 61 68 58 56 56 57 56 56 55 56 56 55 53 52 52 54 54 52 52 51 51 52 53 55 53 51 50 51 52 54 57
50 57 58 65 58 56 55 52 53 55 57 59 58 59 55 47 49 51 50 50 52 53 55 57 57 54 53 54 54 53 49 49 52 53 55 54 53 52 53 53 53 54 55 56
60 59 58 57 60 66 71 57 54 53 54 55 56 53 48 51 49 49 49 51 53 54 53 54 56 57 55 53 52 50 48 49 49 48 47 47 48 48 49 50 52 53 55 57
52 63 58 66 63 61 63 59 60 61 54 56 51 43 42 43 43 51 50 50 48 50 55 56 56 57 57 56 54 53 51 50 49 50 48 47 48 48 49 50 51 53 55 57
74 67 57 61 60 67 70 56 58 65 61 62 59 58 48 45 54 50 44 47 49 51 51 51 51 49 50 50 50 51 51 51 50 51 52 53 54 54 53 52 54 56 57 60
71 66 71 71 71 64 60 60 56 59 70 56 63 60 56 54 59 50 55 56 55 53 54 55 56 56 54 54 56 56 55 55 55 55 56 56 56 56 57 57 58 60 60 61
70 72 74 74 74 78 70 69 73 75 69 69 66 60 53 58 62 61 61 62 60 60 59 59 59 60 60 57 58 60 63 62 62 62 61 59 59 58 58 59 60 61 61 59
63 65 73 76 67 63 65 67 66 61 59 56 61 57 62 66 71 69 66 65 65 65 62 60 61 63 61 57 56 58 60 63 62 63 64 64 62 63 62 61 61 60 59 60
74 62 63 67 71 47 29 44 60 72 75 73 64 66 68 65 56 57 59 62 66 69 69 68 59 66 68 69 69 67 64 63 62 61 63 65 63 61 60 60 59 57 56 59
75 80 72 69 66 63 55 51 43 45 48 61 65 72 63 52 49 53 52 53 53 53 55 56 56 60 64 64 65 65 65 68 66 62 62 60 57 55 54 53 54 55 57 59
63 63 81 82 72 63 61 66 64 61 63 53 45 46 45 49 54 52 49 48 48 49 53 54 55 58 60 61 61 64 65 64 62 59 57 56 52 49 48 48 49 51 54 57
67 69 64 73 70 75 73 80 79 68 61 52 60 62 60 57 56 59 61 61 61 58 57 59 55 52 50 51 52 58 57 54 51 46 42 41 44 45 47 50 53 57 61 65
Wind_Direction
234 236 237 240 241 242 243 244 245 248 252 254 257 254 262 268 274 279 282 285 285 286 294 300 299 296 291 287 274 271 273 268 264 263 261 262 265 269 273 275 277 275 273 271
235 237 238 240 243 244 244 245 247 248 254 258 258 258 259 269 274 279 279 283 283 286 294 299 298 295 291 287 284 274 269 269 267 264 265 266 266 269 272 274 276 276 273 273
236 238 238 239 244 247 248 249 251 253 253 259 262 262 259 265 273 276 282 281 282 284 290 295 296 294 291 288 283 276 268 267 268 267 266 267 269 271 271 272 273 275 277 278
239 240 242 242 246 249 250 250 252 254 256 258 262 269 262 266 268 274 278 279 283 286 288 291 292 291 288 284 284 284 276 270 270 270 269 268 269 269 268 269 270 272 275 277
243 244 245 244 245 248 249 250 253 256 258 259 260 268 272 266 268 271 274 279 282 285 288 286 288 288 286 284 276 278 277 272 269 267 269 270 272 272 271 272 272 273 274 275
245 245 245 246 247 249 250 253 254 255 258 259 263 266 269 275 275 276 278 281 285 288 289 285 285 283 283 283 273 272 276 274 270 269 269 271 273 273 274 275 275 275 274 274
248 248 249 249 249 250 251 253 258 258 257 260 262 265 271 274 281 281 283 284 287 290 292 290 279 281 280 280 273 268 270 272 271 271 271 273 274 274 274 274 274 275 274 274
249 247 247 249 250 253 252 251 253 257 259 260 261 265 270 274 279 284 287 288 290 291 295 297 286 278 276 279 276 269 269 270 271 272 273 274 275 274 275 274 272 273 273 272
248 247 247 247 249 250 253 254 256 257 258 260 261 265 271 277 281 281 282 285 291 293 298 298 283 274 269 271 273 274 274 273 272 272 274 275 274 274 272 273 272 273 273 273
248 250 247 247 247 248 251 252 253 255 256 259 265 268 272 278 277 278 280 281 286 292 295 296 277 272 269 271 274 274 273 273 272 272 274 275 273 273 271 270 270 272 273 274
247 247 248 247 248 249 249 250 253 256 255 258 262 264 269 270 273 278 283 287 290 289 293 280 270 266 265 267 272 274 275 276 274 274 277 278 277 275 275 273 272 273 274 275
250 252 251 250 250 250 251 252 252 253 255 257 261 264 267 273 276 279 284 286 286 286 283 271 268 265 262 261 266 270 273 276 278 278 277 277 278 277 277 277 276 275 273 274
252 251 249 250 249 249 251 253 255 256 256 259 264 267 267 269 278 281 282 282 280 280 277 270 267 265 263 267 267 269 270 271 275 277 277 277 278 280 280 277 275 275 274 275
250 254 252 251 257 254 250 251 251 252 253 260 260 266 267 272 274 272 270 269 268 270 272 277 270 264 266 267 270 269 269 270 274 275 277 279 280 279 279 279 278 277 277 278
252 253 252 253 252 250 255 250 251 253 253 255 262 261 266 264 266 267 269 266 267 271 271 271 270 270 270 270 269 268 268 271 271 271 273 278 278 277 277 278 279 279 280 280
247 263 260 251 249 250 254 254 254 254 254 255 261 261 267 265 263 263 264 267 270 269 270 271 274 274 272 271 271 271 272 268 268 270 274 275 277 277 277 277 277 277 278 279
236 244 248 260 254 258 258 252 249 258 256 261 260 265 260 257 259 262 260 261 265 269 272 271 271 273 276 277 278 277 275 275 276 275 275 276 275 275 275 274 274 274 276 277
234 247 257 255 252 255 259 257 256 256 253 251 255 262 263 259 260 260 262 265 265 267 268 269 271 273 276 278 280 279 278 278 278 279 278 275 273 273 273 271 271 272 273 274
245 246 251 254 253 258 252 249 258 261 258 266 265 265 263 264 267 261 267 266 264 264 266 269 271 274 276 277 277 277 278 278 279 278 279 278 278 277 276 274 273 273 273 275
243 241 241 251 241 249 255 256 254 256 261 257 264 271 270 263 268 267 268 271 273 274 272 272 272 272 273 274 276 277 278 279 280 278 278 278 278 277 276 276 276 275 274 274
244 242 243 242 252 263 261 254 251 255 260 264 260 260 255 261 266 265 264 262 264 268 272 273 272 272 273 276 277 279 279 279 279 279 279 277 276 275 275 275 275 274 275 275
247 242 243 245 251 261 252 249 253 258 256 256 248 253 263 265 264 267 268 264 268 270 270 269 270 272 272 272 276 279 279 279 279 278 277 277 276 275 275 272 270 271 272 274
240 242 244 240 242 250 256 251 250 254 252 255 262 264 263 262 259 266 267 267 269 270 272 273 271 266 267 268 272 276 276 277 277 276 275 275 274 273 271 271 271 271 270 270
242 239 241 239 237 238 239 248 243 245 254 248 253 255 253 255 262 258 257 259 261 260 264 269 270 269 269 268 269 271 272 272 276 276 275 273 272 271 270 269 270 270 270 272
240 242 243 243 235 238 244 246 247 252 260 246 252 252 253 256 255 253 253 263 268 271 274 274 274 272 272 271 271 273 273 272 270 268 267 267 266 268 271 273 273 273 273 273
241 240 245 248 249 253 249 251 257 256 252 260 262 269 276 273 265 269 273 276 278 279 273 271 277 275 272 273 272 269 267 266 266 265 267 274 278 276 278 275 275 275 273 272
Height
5815 5819 5823 5828 5827 5828 5832 5835 5837 5838 5838 5839 5841 5845 5846 5846 5851 5851 5851 5851 5851 5850 5848 5847 5845 5844 5843 5842 5841 5840 5840 5840 5840 5841 5841 5841 5841 5841 5841 5840 5840 5839 5838 5837
5807 5811 5816 5818 5819 5822 5825 5828 5831 5832 5831 5830 5834 5838 5841 5841 5843 5845 5845 5845 5844 5843 5842 5840 5838 5837 5836 5835 5834 5833 5832 5832 5832 5833 5834 5834 5834 5834 5834 5833 5831 5831 5830 5829
5797 5802 5806 5810 5812 5815 5818 5820 5822 5823 5824 5824 5827 5827 5834 5838 5838 5837 5838 5838 5837 5836 5835 5833 5830 5828 5828 5828 5825 5824 5823 5824 5824 5826 5826 5826 5826 5826 5825 5824 5823 5822 5821 5821
5788 5793 5797 5802 5806 5807 5809 5810 5811 5813 5814 5817 5820 5808 5826 5831 5831 5832 5832 5829 5829 5828 5828 5825 5822 5819 5817 5818 5817 5817 5816 5816 5817 5817 5817 5817 5817 5817 5816 5814 5814 5813 5812 5812
5783 5785 5788 5792 5797 5795 5799 5800 5802 5804 5805 5807 5809 5806 5810 5822 5824 5826 5825 5823 5821 5819 5820 5816 5813 5809 5807 5807 5808 5806 5807 5808 5808 5808 5808 5808 5808 5807 5806 5805 5804 5803 5802 5801
5770 5773 5778 5783 5785 5786 5789 5790 5791 5792 5794 5796 5800 5802 5797 5809 5814 5816 5817 5814 5812 5812 5810 5805 5801 5799 5796 5795 5797 5797 5798 5799 5800 5799 5799 5799 5798 5797 5796 5795 5794 5793 5792 5791
5759 5763 5767 5771 5774 5775 5778 5780 5779 5781 5782 5787 5787 5788 5789 5799 5798 5805 5805 5803 5802 5802 5799 5795 5791 5790 5788 5785 5786 5788 5789 5789 5789 5789 5789 5788 5788 5787 5786 5785 5784 5782 5781 5780
5744 5749 5754 5760 5763 5765 5766 5768 5768 5765 5769 5776 5776 5775 5781 5789 5794 5790 5791 5789 5789 5790 5789 5786 5783 5781 5779 5777 5776 5777 5778 5778 5778 5778 5778 5777 5776 5775 5775 5773 5772 5771 5770 5769
5728 5734 5740 5746 5747 5750 5753 5754 5762 5754 5757 5757 5763 5770 5773 5777 5781 5782 5780 5778 5775 5775 5777 5776 5774 5771 5770 5769 5768 5767 5767 5768 5768 5768 5767 5766 5765 5764 5763 5762 5760 5760 5759 5758
5718 5718 5726 5729 5731 5735 5738 5742 5741 5741 5743 5742 5751 5755 5762 5767 5767 5767 5765 5767 5767 5767 5763 5763 5761 5760 5760 5759 5758 5757 5756 5756 5757 5757 5756 5754 5753 5752 5751 5750 5749 5748 5748 5747
5702 5703 5712 5713 5718 5723 5723 5727 5728 5728 5729 5730 5736 5744 5754 5753 5752 5752 5753 5751 5753 5755 5753 5750 5750 5750 5749 5748 5747 5746 5745 5745 5745 5745 5744 5743 5742 5741 5740 5740 5739 5737 5736 5735
5691 5686 5693 5698 5702 5704 5708 5713 5713 5710 5715 5716 5721 5728 5743 5744 5740 5741 5743 5741 5739 5738 5740 5741 5740 5740 5739 5736 5736 5736 5735 5734 5734 5733 5732 5731 5731 5730 5729 5728 5727 5725 5724 5723
5678 5671 5679 5680 5684 5688 5689 5697 5699 5698 5699 5701 5706 5720 5732 5727 5728 5729 5730 5725 5721 5723 5724 5726 5730 5730 5726 5724 5726 5726 5725 5724 5722 5721 5720 5719 5718 5718 5717 5715 5714 5712 5711 5710
5657 5656 5663 5669 5676 5675 5675 5680 5680 5680 5679 5692 5686 5707 5715 5714 5714 5718 5714 5710 5710 5709 5708 5713 5715 5713 5713 5713 5713 5714 5713 5712 5712 5711 5709 5707 5706 5705 5703 5702 5701 5700 5699 5697
5642 5640 5649 5658 5658 5659 5660 5663 5663 5662 5671 5666 5685 5680 5700 5700 5701 5697 5697 5699 5698 5698 5697 5697 5696 5697 5699 5699 5699 5699 5700 5699 5699 5698 5697 5695 5693 5691 5690 5689 5688 5686 5684 5682
5632 5627 5633 5636 5647 5646 5643 5647 5650 5654 5658 5655 5667 5667 5691 5689 5684 5683 5683 5681 5681 5682 5681 5680 5682 5684 5684 5682 5683 5685 5687 5687 5686 5686 5684 5682 5679 5678 5677 5675 5674 5672 5671 5669
5616 5616 5617 5618 5635 5626 5619 5638 5644 5645 5646 5650 5648 5664 5670 5670 5670 5666 5666 5666 5668 5668 5669 5669 5668 5667 5667 5667 5668 5668 5669 5670 5669 5669 5669 5668 5666 5665 5663 5661 5660 5658 5656 5653
5599 5605 5604 5604 5610 5596 5613 5628 5629 5626 5632 5634 5637 5649 5656 5655 5654 5648 5655 5652 5653 5653 5652 5652 5652 5653 5654 5653 5654 5653 5653 5654 5654 5653 5652 5652 5651 5650 5648 5646 5645 5643 5641 5639
5588 5592 5587 5588 5589 5592 5596 5613 5618 5615 5619 5624 5624 5634 5641 5642 5631 5639 5643 5637 5639 5639 5640 5640 5639 5640 5640 5640 5640 5640 5640 5639 5639 5639 5637 5636 5635 5634 5633 5632 5630 5628 5626 5623
5572 5572 5572 5577 5568 5568 5587 5604 5600 5595 5585 5616 5609 5617 5623 5620 5615 5629 5624 5625 5625 5625 5625 5626 5627 5627 5626 5626 5626 5627 5626 5625 5624 5622 5622 5621 5621 5620 5618 5616 5614 5612 5609 5608
5551 5553 5552 5556 5553 5554 5576 5586 5582 5575 5588 5592 5593 5599 5601 5602 5601 5606 5609 5607 5607 5608 5610 5610 5610 5610 5610 5610 5610 5610 5610 5609 5608 5607 5606 5604 5603 5602 5600 5598 5596 5594 5593 5592
5531 5534 5539 5542 5545 5547 5566 5565 5563 5568 5567 5573 5574 5579 5583 5585 5587 5588 5591 5592 5590 5590 5593 5595 5595 5594 5594 5594 5594 5593 5592 5591 5590 5589 5588 5587 5585 5583 5582 5580 5578 5577 5576 5574
5510 5518 5524 5527 5533 5540 5542 5543 5545 5547 5552 5556 5557 5559 5563 5567 5567 5570 5573 5575 5574 5573 5572 5574 5576 5577 5577 5576 5576 5575 5575 5574 5572 5571 5569 5568 5567 5566 5565 5564 5562 5561 5559 5556
5489 5500 5501 5508 5516 5524 5527 5530 5529 5528 5530 5534 5539 5544 5546 5549 5550 5551 5553 5555 5555 5555 5555 5555 5555 5555 5556 5556 5556 5555 5555 5555 5553 5552 5552 5551 5550 5549 5548 5547 5546 5544 5542 5539
5474 5479 5483 5489 5498 5506 5511 5511 5514 5516 5516 5520 5522 5525 5528 5531 5534 5536 5536 5537 5539 5540 5539 5539 5539 5538 5538 5538 5537 5537 5537 5535 5534 5533 5533 5532 5532 5531 5530 5530 5529 5528 5525 5523
5457 5466 5468 5472 5481 5483 5496 5496 5497 5500 5499 5501 5506 5509 5512 5515 5517 5518 5519 5520 5521 5522 5524 5524 5523 5522 5522 5521 5520 5520 5519 5518 5517 5516 5516 5515 5515 5515 5515 5514 5514 5512 5510 5506